{"data":{"norad_id":67590,"epoch":"2026-09-19T11:36:07.554528Z","epoch_age_seconds":157069,"freshness":"FRESH","line1":"1 67590U 26018B   26262.48342077  .00020289  00000+0  62932-3 0  9992","line2":"2 67590  97.2853 325.9405 0000703 105.8994 254.2326 15.33433626 37030","mean_motion":15.33433626,"eccentricity":7.03e-5,"inclination_deg":97.2853,"raan_deg":325.9405,"arg_perigee_deg":105.8994,"mean_anomaly_deg":254.2326,"bstar":0.00062932,"rev_number":3703,"period_min":93.90690119117,"perigee_km":465.09590261371,"apogee_km":466.05812880432,"semimajor_km":6843.714015709,"source":"CELESTRAK","updated_at":"2026-09-20T09:00:43.600958Z"}}